Location: Coopersdale
(40.3556°N, 78.9372°W)
Time: 10:08:18
(UTC+00:00)

Vanguard 1 - Pass Details

Date: 21 January 2021
Orbit: 649 x 3834 km, 34.2° (Epoch: 07 March)

Event Time Altitude Azimuth Distance (km) Brightness Sun altitude
Rises 00:35:57 0° 283° (WNW) 7,980 15.9 -25.6°
Reaches altitude 10° 00:41:50 10° 279° (W) 6,884 15.3 -26.8°
Maximum altitude 01:02:11 48° 214° (SW) 3,586 12.9 -30.6°
Enters shadow 01:12:52 18° 151° (SSE) 4,117 12.9 -32.7°
